Location: Exeidioux
(45.6312°N, 1.6819°E)
Time: 14:30:23
(UTC+00:00)

FALCON 9 DEB - Pass Details

Date: 03 March 2021
Orbit: 424 x 435 km, 53.0° (Epoch: 11 April)

Event Time Altitude Azimuth Distance (km) Brightness Sun altitude
Rises 18:19:29 0° 302° (WNW) 2,405 8.0 -7.2°
Reaches altitude 10° 18:21:42 10° 310° (NW) 1,534 6.7 -7.6°
Maximum altitude 18:24:56 37° 20° (NNE) 681 3.9 -8.1°
Enters shadow 18:27:50 12° 88° (E) 1,406 5.0 -8.6°
